Location: Ffald-y-Brenin
(52.0833°N, 4.0000°W)
Time: 18:40:19
(UTC+00:00)

GEOS 3 Rocket - Pass Details

Date: 18 February 2020
Orbit: 778 x 841 km, 115.0° (Epoch: 27 March)

Event Time Altitude Azimuth Distance (km) Brightness Sun altitude
Rises 05:26:21 0° 44° (NE) 3,361 7.6 -19.0°
Reaches altitude 10° 05:28:39 10° 45° (NE) 2,434 6.8 -18.7°
Maximum altitude 05:33:58 79° 133° (SE) 853 3.7 -17.9°
Enters shadow 05:38:32 15° 219° (SW) 2,135 5.4 -17.2°
